Year,Month,Day,Hour,Minute,Value (Times are PST for temperature in C)
2009,05,17,07,14,12.80
2009,05,17,07,15,12.90
2009,05,17,07,16,12.90
2009,05,17,07,17,13.00
2009,05,17,07,18,13.00
2009,05,17,07,19,13.10
2009,05,17,07,20,13.20
2009,05,17,07,21,13.30
2009,05,17,07,22,13.40
2009,05,17,07,23,13.50
2009,05,17,07,24,13.60
2009,05,17,07,25,13.80
2009,05,17,07,26,13.80
2009,05,17,07,27,13.90
2009,05,17,07,28,14.00
2009,05,17,07,29,14.10
2009,05,17,07,30,14.10
2009,05,17,07,31,14.20
2009,05,17,07,32,14.20
2009,05,17,07,33,14.20
2009,05,17,07,34,14.30
2009,05,17,07,35,14.30
2009,05,17,07,36,14.40
2009,05,17,07,37,14.50
2009,05,17,07,38,14.60
2009,05,17,07,39,14.70
2009,05,17,07,40,14.80
2009,05,17,07,41,14.90
2009,05,17,07,42,15.00
2009,05,17,07,43,15.00
2009,05,17,07,44,15.00
2009,05,17,07,45,15.00
2009,05,17,07,46,15.00
2009,05,17,07,47,15.10
2009,05,17,07,48,15.10
2009,05,17,07,49,15.20
2009,05,17,07,50,15.20
2009,05,17,07,51,15.20
2009,05,17,07,52,15.30
2009,05,17,07,53,15.30
2009,05,17,07,54,15.30
2009,05,17,07,55,15.40
2009,05,17,07,56,15.40
2009,05,17,07,57,15.40
2009,05,17,07,58,15.40
2009,05,17,07,59,15.50
2009,05,17,08,00,15.50
2009,05,17,08,01,15.60
2009,05,17,08,02,15.70
2009,05,17,08,03,15.80
2009,05,17,08,04,15.90
2009,05,17,08,05,16.00
2009,05,17,08,06,16.00
2009,05,17,08,07,16.00
2009,05,17,08,08,16.10
2009,05,17,08,09,16.10
2009,05,17,08,10,16.10
2009,05,17,08,11,16.10
2009,05,17,08,12,16.10
2009,05,17,08,13,16.00
2009,05,17,08,14,16.00
2009,05,17,08,15,16.00
2009,05,17,08,16,15.90
2009,05,17,08,17,15.90
2009,05,17,08,18,15.90
2009,05,17,08,19,15.90
2009,05,17,08,20,15.90
2009,05,17,08,21,15.90
2009,05,17,08,22,15.90
2009,05,17,08,23,15.90
2009,05,17,08,24,15.90
2009,05,17,08,25,15.90
2009,05,17,08,26,15.90
2009,05,17,08,27,15.90
2009,05,17,08,28,15.90
2009,05,17,08,29,15.90
2009,05,17,08,30,16.00
2009,05,17,08,31,16.10
2009,05,17,08,32,16.10
2009,05,17,08,33,16.20
2009,05,17,08,34,16.20
2009,05,17,08,35,16.30
2009,05,17,08,36,16.30
2009,05,17,08,37,16.20
2009,05,17,08,38,16.20
2009,05,17,08,39,16.20
2009,05,17,08,40,16.10
2009,05,17,08,41,16.10
2009,05,17,08,42,16.10
2009,05,17,08,43,16.10
2009,05,17,08,44,16.10
2009,05,17,08,45,16.10
2009,05,17,08,46,16.20
2009,05,17,08,47,16.20
2009,05,17,08,48,16.20
2009,05,17,08,49,16.20
2009,05,17,08,50,16.10
2009,05,17,08,51,16.10
2009,05,17,08,52,16.10
2009,05,17,08,53,16.10
2009,05,17,08,54,16.10
2009,05,17,08,55,16.10
2009,05,17,08,56,16.10
2009,05,17,08,57,16.10
2009,05,17,08,58,16.10
2009,05,17,08,59,16.10
2009,05,17,09,00,16.10
2009,05,17,09,01,16.20
2009,05,17,09,02,16.20
2009,05,17,09,03,16.30
2009,05,17,09,04,16.30
2009,05,17,09,05,16.30
2009,05,17,09,06,16.20
2009,05,17,09,07,16.20
2009,05,17,09,08,16.10
2009,05,17,09,09,16.10
2009,05,17,09,10,16.10
2009,05,17,09,11,16.10
2009,05,17,09,12,16.10
2009,05,17,09,13,16.20
2009,05,17,09,14,16.30
2009,05,17,09,15,16.30
2009,05,17,09,16,16.30
2009,05,17,09,17,16.30
2009,05,17,09,18,16.40
2009,05,17,09,19,16.40
2009,05,17,09,20,16.50
2009,05,17,09,21,16.60
2009,05,17,09,22,16.60
2009,05,17,09,23,16.70
2009,05,17,09,24,16.70
2009,05,17,09,25,16.70
2009,05,17,09,26,16.60
2009,05,17,09,27,16.50
2009,05,17,09,28,16.40
2009,05,17,09,29,16.40
2009,05,17,09,30,16.40
2009,05,17,09,31,16.30
2009,05,17,09,32,16.20
2009,05,17,09,33,16.10
2009,05,17,09,34,16.00
2009,05,17,09,35,15.90
2009,05,17,09,36,15.80
2009,05,17,09,37,15.70
2009,05,17,09,38,15.60
2009,05,17,09,39,15.50
2009,05,17,09,40,15.40
2009,05,17,09,41,15.40
2009,05,17,09,42,15.40
2009,05,17,09,43,15.40
2009,05,17,09,44,15.40
2009,05,17,09,45,15.50
2009,05,17,09,46,15.60
2009,05,17,09,47,15.60
2009,05,17,09,48,15.70
2009,05,17,09,49,15.70
2009,05,17,09,50,15.80
2009,05,17,09,51,15.90
2009,05,17,09,52,15.90
2009,05,17,09,53,16.00
2009,05,17,09,54,16.10
2009,05,17,09,55,16.10
2009,05,17,09,56,16.20
2009,05,17,09,57,16.20
2009,05,17,09,58,16.30
2009,05,17,09,59,16.30
2009,05,17,10,00,16.40
2009,05,17,10,01,16.50
2009,05,17,10,02,16.50
2009,05,17,10,03,16.50
2009,05,17,10,04,16.40
2009,05,17,10,05,16.40
2009,05,17,10,06,16.50
2009,05,17,10,07,16.50
2009,05,17,10,08,16.70
2009,05,17,10,09,16.80
2009,05,17,10,10,16.80
2009,05,17,10,11,16.90
2009,05,17,10,12,17.00
2009,05,17,10,13,17.00
2009,05,17,10,14,17.00
2009,05,17,10,15,16.80
2009,05,17,10,16,16.70
2009,05,17,10,17,16.60
2009,05,17,10,18,16.50
2009,05,17,10,19,16.50
2009,05,17,10,20,16.50
2009,05,17,10,21,16.40
2009,05,17,10,22,16.40
2009,05,17,10,23,16.40
2009,05,17,10,24,16.40
2009,05,17,10,25,16.50
2009,05,17,10,26,16.50
2009,05,17,10,27,16.40
2009,05,17,10,28,16.30
2009,05,17,10,29,16.30
2009,05,17,10,30,16.10
2009,05,17,10,31,16.10
2009,05,17,10,32,16.10
2009,05,17,10,33,16.20
2009,05,17,10,34,16.20
2009,05,17,10,35,16.20
2009,05,17,10,36,16.20
2009,05,17,10,37,16.20
2009,05,17,10,38,16.30
2009,05,17,10,39,16.30
2009,05,17,10,40,16.30
2009,05,17,10,41,16.30
2009,05,17,10,42,16.30
2009,05,17,10,43,16.40
2009,05,17,10,44,16.40
2009,05,17,10,45,16.50
2009,05,17,10,46,16.60
2009,05,17,10,47,16.60
2009,05,17,10,48,16.70
2009,05,17,10,49,16.70
2009,05,17,10,50,16.80
2009,05,17,10,51,16.80
2009,05,17,10,52,16.80
2009,05,17,10,53,16.80
2009,05,17,10,54,16.90
2009,05,17,10,55,16.90
2009,05,17,10,56,17.00
2009,05,17,10,57,17.00
2009,05,17,10,58,17.10
2009,05,17,10,59,17.10
2009,05,17,11,00,17.10
2009,05,17,11,01,17.10
2009,05,17,11,02,17.10
2009,05,17,11,03,17.10
2009,05,17,11,04,17.00
2009,05,17,11,05,17.00
2009,05,17,11,06,17.00
2009,05,17,11,07,17.00
2009,05,17,11,08,16.90
2009,05,17,11,09,16.90
2009,05,17,11,10,17.00
2009,05,17,11,11,17.00
2009,05,17,11,12,17.10
2009,05,17,11,13,17.20
2009,05,17,11,14,17.20
2009,05,17,11,15,17.30
2009,05,17,11,16,17.30
2009,05,17,11,17,17.40
2009,05,17,11,18,17.40
2009,05,17,11,19,17.30
2009,05,17,11,20,17.40
2009,05,17,11,21,17.40
2009,05,17,11,22,17.40
2009,05,17,11,23,17.40
2009,05,17,11,24,17.40
2009,05,17,11,25,17.50
2009,05,17,11,26,17.50
2009,05,17,11,27,17.70
2009,05,17,11,28,17.80
2009,05,17,11,29,17.90
2009,05,17,11,30,18.00
2009,05,17,11,31,18.00
2009,05,17,11,32,18.10
2009,05,17,11,33,18.10
2009,05,17,11,34,18.20
2009,05,17,11,35,18.30
2009,05,17,11,36,18.30
2009,05,17,11,37,18.30
2009,05,17,11,38,18.30
2009,05,17,11,39,18.30
2009,05,17,11,40,18.30
2009,05,17,11,41,18.40
2009,05,17,11,42,18.50
2009,05,17,11,43,18.40
2009,05,17,11,44,18.50
2009,05,17,11,45,18.60
2009,05,17,11,46,18.60
2009,05,17,11,47,18.70
2009,05,17,11,48,18.80
2009,05,17,11,49,18.90
2009,05,17,11,50,18.90
2009,05,17,11,51,19.00
2009,05,17,11,52,19.00
2009,05,17,11,53,19.10
2009,05,17,11,54,19.20
2009,05,17,11,55,19.20
2009,05,17,11,56,19.20
2009,05,17,11,57,19.20
2009,05,17,11,58,19.30
2009,05,17,11,59,19.40
2009,05,17,12,00,19.50
2009,05,17,12,01,19.60
2009,05,17,12,02,19.60
2009,05,17,12,03,19.70
2009,05,17,12,04,19.80
2009,05,17,12,05,19.80
2009,05,17,12,06,19.80
2009,05,17,12,07,19.80
2009,05,17,12,08,19.70
2009,05,17,12,09,19.50
2009,05,17,12,10,19.30
2009,05,17,12,11,19.20
2009,05,17,12,12,19.10
2009,05,17,12,13,19.00
2009,05,17,12,14,18.90
2009,05,17,12,15,18.90
2009,05,17,12,16,18.90
2009,05,17,12,17,19.00
2009,05,17,12,18,19.00
2009,05,17,12,19,19.00
2009,05,17,12,20,19.00
2009,05,17,12,21,19.00
2009,05,17,12,22,19.10
2009,05,17,12,23,19.10
2009,05,17,12,24,19.10
2009,05,17,12,25,19.10
2009,05,17,12,26,19.00
2009,05,17,12,27,18.90
2009,05,17,12,28,19.00
2009,05,17,12,29,19.00
2009,05,17,12,30,19.10
2009,05,17,12,31,19.10
2009,05,17,12,32,19.10
2009,05,17,12,33,19.20
2009,05,17,12,34,19.20
2009,05,17,12,35,19.10
2009,05,17,12,36,18.90
2009,05,17,12,37,18.70
2009,05,17,12,38,18.60
2009,05,17,12,39,18.40
2009,05,17,12,40,18.30
2009,05,17,12,41,18.20
2009,05,17,12,42,18.20
2009,05,17,12,43,18.20
2009,05,17,12,44,18.30
2009,05,17,12,45,18.40
2009,05,17,12,46,18.60
2009,05,17,12,47,18.70
2009,05,17,12,48,18.90
2009,05,17,12,49,18.90
2009,05,17,12,50,18.90
2009,05,17,12,51,19.00
2009,05,17,12,52,19.00
2009,05,17,12,53,19.10
2009,05,17,12,54,19.10
2009,05,17,12,55,19.10
2009,05,17,12,56,19.10
2009,05,17,12,57,19.10
2009,05,17,12,58,19.10
2009,05,17,12,59,19.20
2009,05,17,13,00,19.10
2009,05,17,13,01,19.10
2009,05,17,13,02,19.10
2009,05,17,13,03,19.10
2009,05,17,13,04,19.20
2009,05,17,13,05,19.20
2009,05,17,13,06,19.30
2009,05,17,13,07,19.40
2009,05,17,13,08,19.50
2009,05,17,13,09,19.60
2009,05,17,13,10,19.70
2009,05,17,13,11,19.70
2009,05,17,13,12,19.60
2009,05,17,13,13,19.60
2009,05,17,13,14,19.50
2009,05,17,13,15,19.50
2009,05,17,13,16,19.40
2009,05,17,13,17,19.40
2009,05,17,13,18,19.50
2009,05,17,13,19,19.60
2009,05,17,13,20,19.60
2009,05,17,13,21,19.70
2009,05,17,13,22,19.80
2009,05,17,13,23,19.80
2009,05,17,13,24,19.80
2009,05,17,13,25,19.80
2009,05,17,13,26,19.80
2009,05,17,13,27,19.70
2009,05,17,13,28,19.80
2009,05,17,13,29,19.90
2009,05,17,13,30,20.00
2009,05,17,13,31,20.20
2009,05,17,13,32,20.20
2009,05,17,13,33,20.30
2009,05,17,13,34,20.20
2009,05,17,13,35,20.20
2009,05,17,13,36,20.00
2009,05,17,13,37,20.00
2009,05,17,13,38,20.00
2009,05,17,13,39,19.90
2009,05,17,13,40,20.10
2009,05,17,13,41,20.20
2009,05,17,13,42,20.20
2009,05,17,13,43,20.20
2009,05,17,13,44,20.20
2009,05,17,13,45,20.30
2009,05,17,13,46,20.40
2009,05,17,13,47,20.50
2009,05,17,13,48,20.70
2009,05,17,13,49,20.70
2009,05,17,13,50,20.70
2009,05,17,13,51,20.70
2009,05,17,13,52,20.70
2009,05,17,13,53,20.70
2009,05,17,13,54,20.70
2009,05,17,13,55,20.70
2009,05,17,13,56,20.60
2009,05,17,13,57,20.70
2009,05,17,13,58,20.70
2009,05,17,13,59,20.80
2009,05,17,14,00,20.90
2009,05,17,14,01,21.00
2009,05,17,14,02,21.10
2009,05,17,14,03,21.00
2009,05,17,14,04,21.00
2009,05,17,14,05,21.10
2009,05,17,14,06,21.10
2009,05,17,14,07,21.10
2009,05,17,14,08,21.10
2009,05,17,14,09,21.20
2009,05,17,14,10,21.30
2009,05,17,14,11,21.40
2009,05,17,14,12,21.40
2009,05,17,14,13,21.30
2009,05,17,14,14,21.20
2009,05,17,14,15,21.10
2009,05,17,14,16,21.00
2009,05,17,14,17,20.90
2009,05,17,14,18,20.80
2009,05,17,14,19,20.80
2009,05,17,14,20,20.80
2009,05,17,14,21,20.80
2009,05,17,14,22,20.80
2009,05,17,14,23,20.80
2009,05,17,14,24,20.80
2009,05,17,14,25,20.80
2009,05,17,14,26,20.90
2009,05,17,14,27,20.90
2009,05,17,14,28,20.90
2009,05,17,14,29,20.90
2009,05,17,14,30,20.90
2009,05,17,14,31,21.00
2009,05,17,14,32,21.00
2009,05,17,14,33,21.00
2009,05,17,14,34,20.90
2009,05,17,14,35,20.90
2009,05,17,14,36,20.90
2009,05,17,14,37,20.90
2009,05,17,14,38,20.90
2009,05,17,14,39,20.90
2009,05,17,14,40,20.90
2009,05,17,14,41,20.90
2009,05,17,14,42,21.00
2009,05,17,14,43,21.10
2009,05,17,14,44,21.10
2009,05,17,14,45,21.10
2009,05,17,14,46,21.10
2009,05,17,14,47,21.10
2009,05,17,14,48,21.20
2009,05,17,14,49,21.10
2009,05,17,14,50,21.10
2009,05,17,14,51,21.10
2009,05,17,14,52,21.10
2009,05,17,14,53,21.20
2009,05,17,14,54,21.30
2009,05,17,14,55,21.30
2009,05,17,14,56,21.30
2009,05,17,14,57,21.20
2009,05,17,14,58,21.20
2009,05,17,14,59,21.20
2009,05,17,15,00,21.20
2009,05,17,15,01,21.30
2009,05,17,15,02,21.50
2009,05,17,15,03,21.60
2009,05,17,15,04,21.60
2009,05,17,15,05,21.60
2009,05,17,15,06,21.50
2009,05,17,15,07,21.40
2009,05,17,15,08,21.30
2009,05,17,15,09,21.30
2009,05,17,15,10,21.30
2009,05,17,15,11,21.30
2009,05,17,15,12,21.30
2009,05,17,15,13,21.20
2009,05,17,15,14,21.20
2009,05,17,15,15,21.20
2009,05,17,15,16,21.10
2009,05,17,15,17,21.10
2009,05,17,15,18,21.10
2009,05,17,15,19,21.10
2009,05,17,15,20,21.20
2009,05,17,15,21,21.30
2009,05,17,15,22,21.40
2009,05,17,15,23,21.50
2009,05,17,15,24,21.60
2009,05,17,15,25,21.70
2009,05,17,15,26,21.60
2009,05,17,15,27,21.50
2009,05,17,15,28,21.40
2009,05,17,15,29,21.20
2009,05,17,15,30,21.20
2009,05,17,15,31,21.00
2009,05,17,15,32,21.00
2009,05,17,15,33,21.00
2009,05,17,15,34,21.00
2009,05,17,15,35,21.00
2009,05,17,15,36,21.10
2009,05,17,15,37,21.10
2009,05,17,15,38,21.00
2009,05,17,15,39,21.00
2009,05,17,15,40,21.10
2009,05,17,15,41,21.20
2009,05,17,15,42,21.10
2009,05,17,15,43,21.20
2009,05,17,15,44,21.20
2009,05,17,15,45,21.40
2009,05,17,15,46,21.40
2009,05,17,15,47,21.40
2009,05,17,15,48,21.40
2009,05,17,15,49,21.40
2009,05,17,15,50,21.30
2009,05,17,15,51,21.20
2009,05,17,15,52,21.10
2009,05,17,15,53,21.10
2009,05,17,15,54,21.00
2009,05,17,15,55,20.90
2009,05,17,15,56,21.00
2009,05,17,15,57,21.00
2009,05,17,15,58,21.10
2009,05,17,15,59,21.20
2009,05,17,16,00,21.20
2009,05,17,16,01,21.30
2009,05,17,16,02,21.40
2009,05,17,16,03,21.40
2009,05,17,16,04,21.40
2009,05,17,16,05,21.40
2009,05,17,16,06,21.30
2009,05,17,16,07,21.30
2009,05,17,16,08,21.30
2009,05,17,16,09,21.30
2009,05,17,16,10,21.30
2009,05,17,16,11,21.30
2009,05,17,16,12,21.30
2009,05,17,16,13,21.30
2009,05,17,16,14,21.30
2009,05,17,16,15,21.30
2009,05,17,16,16,21.40
2009,05,17,16,17,21.40
2009,05,17,16,18,21.40
2009,05,17,16,19,21.30
2009,05,17,16,20,21.30
2009,05,17,16,21,21.30
2009,05,17,16,22,21.30
2009,05,17,16,23,21.30
2009,05,17,16,24,21.20
2009,05,17,16,25,21.20
2009,05,17,16,26,21.20
2009,05,17,16,27,21.30
2009,05,17,16,28,21.30
2009,05,17,16,29,21.30
2009,05,17,16,30,21.30
2009,05,17,16,31,21.30
2009,05,17,16,32,21.30
2009,05,17,16,33,21.40
2009,05,17,16,34,21.50
2009,05,17,16,35,21.50
2009,05,17,16,36,21.50
2009,05,17,16,37,21.50
2009,05,17,16,38,21.40
2009,05,17,16,39,21.40
2009,05,17,16,40,21.40
2009,05,17,16,41,21.40
2009,05,17,16,42,21.40
2009,05,17,16,43,21.30
2009,05,17,16,44,21.30
2009,05,17,16,45,21.30
2009,05,17,16,46,21.20
2009,05,17,16,47,21.30
2009,05,17,16,48,21.40
2009,05,17,16,49,21.50
2009,05,17,16,50,21.60
2009,05,17,16,51,21.60
2009,05,17,16,52,21.50
2009,05,17,16,53,21.40
2009,05,17,16,54,21.40
2009,05,17,16,55,21.50
2009,05,17,16,56,21.50
2009,05,17,16,57,21.50
2009,05,17,16,58,21.50
2009,05,17,16,59,21.50
2009,05,17,17,00,21.50
2009,05,17,17,01,21.50
2009,05,17,17,02,21.60
2009,05,17,17,03,21.60
2009,05,17,17,04,21.60
2009,05,17,17,05,21.50
2009,05,17,17,06,21.50
2009,05,17,17,07,21.40
2009,05,17,17,08,21.40
2009,05,17,17,09,21.30
2009,05,17,17,10,21.40
2009,05,17,17,11,21.40
2009,05,17,17,12,21.40
2009,05,17,17,13,21.40
2009,05,17,17,14,21.40
2009,05,17,17,15,21.30
2009,05,17,17,16,21.20
2009,05,17,17,17,21.20
2009,05,17,17,18,21.10
2009,05,17,17,19,21.10
2009,05,17,17,20,21.10
2009,05,17,17,21,21.10
2009,05,17,17,22,21.00
2009,05,17,17,23,21.00
2009,05,17,17,24,21.10
2009,05,17,17,25,21.10
2009,05,17,17,26,21.20
2009,05,17,17,27,21.30
2009,05,17,17,28,21.30
2009,05,17,17,29,21.30
2009,05,17,17,30,21.20
2009,05,17,17,31,21.10
2009,05,17,17,32,21.10
2009,05,17,17,33,21.00
2009,05,17,17,34,21.00
2009,05,17,17,35,21.00
2009,05,17,17,36,20.90
2009,05,17,17,37,21.00
2009,05,17,17,38,21.00
2009,05,17,17,39,20.90
2009,05,17,17,40,20.90
2009,05,17,17,41,20.80
2009,05,17,17,42,20.80
2009,05,17,17,43,20.80
2009,05,17,17,44,20.70
2009,05,17,17,45,20.70
2009,05,17,17,46,20.80
2009,05,17,17,47,20.80
2009,05,17,17,48,20.80
2009,05,17,17,49,20.80
2009,05,17,17,50,20.70
2009,05,17,17,51,20.70
2009,05,17,17,52,20.70
2009,05,17,17,53,20.60
2009,05,17,17,54,20.60
2009,05,17,17,55,20.60
2009,05,17,17,56,20.50
2009,05,17,17,57,20.50
2009,05,17,17,58,20.50
2009,05,17,17,59,20.40
2009,05,17,18,00,20.40
2009,05,17,18,01,20.50
2009,05,17,18,02,20.50
2009,05,17,18,03,20.50
2009,05,17,18,04,20.50
2009,05,17,18,05,20.60
2009,05,17,18,06,20.60
2009,05,17,18,07,20.60
2009,05,17,18,08,20.50
2009,05,17,18,09,20.50
2009,05,17,18,10,20.50
2009,05,17,18,11,20.50
2009,05,17,18,12,20.50
2009,05,17,18,13,20.50
2009,05,17,18,14,20.50
2009,05,17,18,15,20.60
2009,05,17,18,16,20.60
2009,05,17,18,17,20.60
2009,05,17,18,18,20.60
2009,05,17,18,19,20.70
2009,05,17,18,20,20.70
2009,05,17,18,21,20.70
2009,05,17,18,22,20.70
2009,05,17,18,23,20.70
2009,05,17,18,24,20.70
2009,05,17,18,25,20.60
2009,05,17,18,26,20.60
2009,05,17,18,27,20.60
2009,05,17,18,28,20.60
2009,05,17,18,29,20.60
2009,05,17,18,30,20.50
2009,05,17,18,31,20.50
2009,05,17,18,32,20.50
2009,05,17,18,33,20.50
2009,05,17,18,34,20.50
2009,05,17,18,35,20.50
2009,05,17,18,36,20.60
2009,05,17,18,37,20.60
2009,05,17,18,38,20.60
2009,05,17,18,39,20.60
2009,05,17,18,40,20.70
2009,05,17,18,41,20.60
2009,05,17,18,42,20.60
2009,05,17,18,43,20.60
2009,05,17,18,44,20.50
2009,05,17,18,45,20.50
2009,05,17,18,46,20.40
2009,05,17,18,47,20.40
2009,05,17,18,48,20.30
2009,05,17,18,49,20.30
2009,05,17,18,50,20.30
2009,05,17,18,51,20.30
2009,05,17,18,52,20.30
2009,05,17,18,53,20.30
2009,05,17,18,54,20.30
2009,05,17,18,55,20.30
2009,05,17,18,56,20.40
2009,05,17,18,57,20.40
2009,05,17,18,58,20.40
2009,05,17,18,59,20.40
2009,05,17,19,00,20.40
2009,05,17,19,01,20.40
2009,05,17,19,02,20.40
2009,05,17,19,03,20.40
2009,05,17,19,04,20.30
2009,05,17,19,05,20.30
2009,05,17,19,06,20.20
2009,05,17,19,07,20.20
2009,05,17,19,08,20.20
2009,05,17,19,09,20.20
2009,05,17,19,10,20.20
2009,05,17,19,11,20.20
2009,05,17,19,12,20.20
2009,05,17,19,13,20.20
2009,05,17,19,14,20.20
2009,05,17,19,15,20.20
2009,05,17,19,16,20.20
2009,05,17,19,17,20.20
2009,05,17,19,18,20.20
2009,05,17,19,19,20.20
2009,05,17,19,20,20.20
2009,05,17,19,21,20.20
2009,05,17,19,22,20.10
2009,05,17,19,23,20.10
2009,05,17,19,24,20.10
2009,05,17,19,25,20.10
2009,05,17,19,26,20.10
2009,05,17,19,27,20.10
2009,05,17,19,28,20.10
2009,05,17,19,29,20.10
2009,05,17,19,30,20.10
2009,05,17,19,31,20.00
2009,05,17,19,32,20.00
2009,05,17,19,33,20.00
2009,05,17,19,34,20.00
2009,05,17,19,35,20.00
2009,05,17,19,36,19.90
2009,05,17,19,37,19.90
2009,05,17,19,38,19.90
2009,05,17,19,39,19.90
2009,05,17,19,40,19.90
2009,05,17,19,41,19.90
2009,05,17,19,42,19.90
2009,05,17,19,43,19.90
2009,05,17,19,44,19.90
2009,05,17,19,45,19.80
2009,05,17,19,46,19.80
2009,05,17,19,47,19.80
2009,05,17,19,48,19.80
2009,05,17,19,49,19.80
2009,05,17,19,50,19.80
2009,05,17,19,51,19.80
2009,05,17,19,52,19.70
2009,05,17,19,53,19.60
2009,05,17,19,54,19.40
2009,05,17,19,55,19.30
2009,05,17,19,56,19.10
2009,05,17,19,57,18.90
2009,05,17,19,58,18.80
2009,05,17,19,59,18.60
2009,05,17,20,00,18.50
2009,05,17,20,01,18.30
2009,05,17,20,02,18.20
2009,05,17,20,03,18.10
2009,05,17,20,04,17.90
2009,05,17,20,05,17.80
2009,05,17,20,06,17.60
2009,05,17,20,07,17.40
2009,05,17,20,08,17.20
2009,05,17,20,09,17.10
2009,05,17,20,10,17.00
2009,05,17,20,11,16.90
2009,05,17,20,12,16.80
2009,05,17,20,13,16.70
2009,05,17,20,14,16.60
2009,05,17,20,15,16.50
2009,05,17,20,16,16.40
2009,05,17,20,17,16.40
2009,05,17,20,18,16.40
2009,05,17,20,19,16.30
2009,05,17,20,20,16.30
2009,05,17,20,21,16.30
2009,05,17,20,22,16.20
2009,05,17,20,23,16.20
2009,05,17,20,24,16.20
2009,05,17,20,25,16.10
2009,05,17,20,26,16.10
2009,05,17,20,27,16.10
2009,05,17,20,28,16.10
2009,05,17,20,29,16.10
2009,05,17,20,30,16.10
2009,05,17,20,31,16.10
2009,05,17,20,32,16.10
2009,05,17,20,33,16.10
2009,05,17,20,34,16.10
2009,05,17,20,35,16.10
2009,05,17,20,36,16.10
2009,05,17,20,37,16.10
